Change the Weather History Date:

Monday, January 20, 2014

  Actual Average Record
Temperature  
Mean Temperature 43 °F 32 °F  
Max Temperature 50 °F 42 °F 71 °F (1906)
Min Temperature 35 °F 23 °F -27 °F (1994)
Degree Days  
Heating Degree Days 22 32  
Month to date heating degree days 695 659  
Since 1 July heating degree days 2626 2491  
Cooling Degree Days 0 0  
Month to date cooling degree days 0 0  
Year to date cooling degree days 0 0  
Moisture  
Dew Point 27 °F    
Average Humidity 61    
Maximum Humidity 75    
Minimum Humidity 46    
Precipitation  
Precipitation 0.00 in 0.10 in 2.40 in (1988)
Month to date precipitation 2.10 2.25  
Year to date precipitation 2.10 2.25  
Sea Level Pressure  
Sea Level Pressure 29.85 in    
Wind  
Wind Speed 9 mph (West)    
Max Wind Speed 18 mph    
Max Gust Speed 24 mph    
Visibility 10 miles    
Events      
T = Trace of Precipitation, MM = Missing Value Source: NWS Daily Summary

Daily Weather History Graph

Daily Weather History Graph

Search for Another Location

Airport or City:

Trip Planner

Search our weather history database for the weather conditions in past years. The results will help you decide how hot, cold, wet, or windy it might be!

Date:

Astronomy

Jan. 20, 2014 Rise Set
Actual Time 7:52 AM EST 5:49 PM EST
Civil Twilight 7:24 AM EST 6:17 PM EST
Nautical Twilight 6:51 AM EST 6:49 PM EST
Astronomical Twilight 6:20 AM EST 7:21 PM EST
Moon 10:18 PM EST (1/20) 9:56 AM EST (1/20)
Length of Visible Light 10h 53m
Length of Day
9h 56m
Waning Gibbous, 83% of the Moon is Illuminated
Jan 20
Waning Gibbous
Jan 24
Last Quarter
Jan 30
New
Feb 6
First Quarter
Feb 14
Full

Hourly Weather History & Observations

Time (EST) Temp. Windchill Dew Point Humidity Pressure Visibility Wind Dir Wind Speed Gust Speed Precip Events Conditions
12:53 AM 37.0 °F 28.5 °F 24.1 °F 59% 29.82 in 10.0 mi SW 13.8 mph - N/A   Clear
1:53 AM 37.0 °F 28.1 °F 24.1 °F 59% 29.80 in 10.0 mi SW 15.0 mph - N/A   Clear
2:53 AM 37.9 °F 28.5 °F 23.0 °F 55% 29.79 in 10.0 mi SW 17.3 mph - N/A   Clear
3:53 AM 37.9 °F 30.0 °F 24.1 °F 57% 29.80 in 10.0 mi SW 12.7 mph 21.9 mph N/A   Clear
4:53 AM 37.0 °F 28.1 °F 24.1 °F 59% 29.80 in 10.0 mi SW 15.0 mph - N/A   Clear
5:53 AM 37.0 °F 28.1 °F 24.1 °F 59% 29.81 in 10.0 mi SW 15.0 mph - N/A   Clear
6:53 AM 36.0 °F 28.0 °F 24.1 °F 62% 29.83 in 10.0 mi SW 11.5 mph - N/A   Clear
7:53 AM 36.0 °F 27.5 °F 25.0 °F 64% 29.84 in 10.0 mi SW 12.7 mph - N/A   Clear
8:53 AM 37.0 °F 29.8 °F 25.0 °F 62% 29.86 in 10.0 mi SW 10.4 mph - N/A   Clear
9:53 AM 39.9 °F 34.5 °F 26.1 °F 58% 29.89 in 10.0 mi WSW 8.1 mph 18.4 mph N/A   Clear
10:53 AM 43.0 °F 37.7 °F 27.0 °F 53% 29.91 in 10.0 mi West 9.2 mph - N/A   Clear
11:53 AM 45.0 °F 41.2 °F 28.9 °F 53% 29.91 in 10.0 mi Variable 6.9 mph - N/A   Clear
12:53 PM 46.0 °F 43.1 °F 28.9 °F 51% 29.88 in 10.0 mi Variable 5.8 mph 17.3 mph N/A   Clear
1:53 PM 48.0 °F - 28.9 °F 48% 29.86 in 10.0 mi West 8.1 mph - N/A   Clear
2:53 PM 48.9 °F - 28.9 °F 46% 29.85 in 10.0 mi WNW 4.6 mph - N/A   Clear
3:53 PM 50.0 °F - 30.0 °F 46% 29.86 in 10.0 mi Variable 4.6 mph - N/A   Clear
4:53 PM 48.9 °F - 28.9 °F 46% 29.87 in 10.0 mi WSW 5.8 mph - N/A   Clear
5:53 PM 46.0 °F 44.8 °F 30.0 °F 54% 29.88 in 10.0 mi NW 3.5 mph - N/A   Clear
6:53 PM 37.9 °F - 28.9 °F 70% 29.88 in 10.0 mi Calm Calm - N/A   Clear
7:53 PM 36.0 °F 30.3 °F 28.9 °F 76% 29.89 in 10.0 mi North 6.9 mph - N/A   Clear
8:53 PM 39.0 °F 35.7 °F 28.0 °F 65% 29.88 in 10.0 mi NNE 4.6 mph - N/A   Clear
9:53 PM 37.0 °F 32.4 °F 27.0 °F 67% 29.88 in 10.0 mi NNE 5.8 mph - N/A   Clear
10:53 PM 36.0 °F 30.3 °F 28.0 °F 73% 29.87 in 10.0 mi NE 6.9 mph - N/A   Clear
11:53 PM 35.1 °F 29.3 °F 27.0 °F 72% 29.86 in 10.0 mi NNE 6.9 mph - N/A   Partly Cloudy